{"data":{"norad_id":58287,"intl_designator":"2023-174AH","name":"PICO-01B009","alt_names":[],"object_type":"PAYLOAD","status":"ACTIVE","operator":null,"country":"IT","launch_date":"2023-11-11","launch_site_code":"AFWTR","launch_vehicle":null,"mission":null,"orbit_class":"UNKNOWN","rcs_meters":null,"size_class":null,"mass_kg":null,"dimensions":null,"purposes":[],"wikipedia_slug":null,"has_3d_model":false,"image_url":null,"decayed_at":null,"tle_current":{"epoch":"2026-05-24T20:22:11.356320Z","epoch_age_seconds":84075,"freshness":"FRESH","line1":"1 58287U 23174AH  26144.84874255  .00150509  00000+0  98986-3 0  9999","line2":"2 58287  97.3778 240.1117 0004627 196.4700 163.6416 15.75235146142480","mean_motion":15.75235146,"eccentricity":0.0004627,"inclination_deg":97.3778,"raan_deg":240.1117,"arg_perigee_deg":196.47,"mean_anomaly_deg":163.6416,"bstar":0.00098986,"rev_number":14248,"period_min":91.414923267589,"perigee_km":340.85181412434,"apogee_km":347.07244465868,"semimajor_km":6722.0991293915,"source":"CELESTRAK","updated_at":"2026-05-25T13:38:00.644505Z"}}}